Weather History for Morgantown, WV

Change the Weather History Date:

Saturday, November 3, 2012

  Actual Average Record
Temperature  
Mean Temperature 41 °F 49 °F  
Max Temperature 44 °F 59 °F 83 °F (1961)
Min Temperature 38 °F 39 °F 23 °F (1951)
Degree Days  
Heating Degree Days 24 16  
Month to date heating degree days 73 47  
Since 1 July heating degree days 491 489  
Cooling Degree Days 0 0  
Month to date cooling degree days 0 0  
Year to date cooling degree days 1141 813  
Moisture  
Dew Point 29 °F    
Average Humidity 67    
Maximum Humidity 76    
Minimum Humidity 57    
Precipitation  
Precipitation 0.00 in 0.11 in 0.96 in (1985)
Month to date precipitation 0.09 0.33  
Year to date precipitation 29.91 35.79  
Sea Level Pressure  
Sea Level Pressure 30.11 in    
Wind  
Wind Speed 4 mph (WNW)    
Max Wind Speed 12 mph    
Max Gust Speed 15 mph    
Visibility 10 miles    
Events      
T = Trace of Precipitation, MM = Missing Value Source: NWS Daily Summary

Daily Weather History Graph

Daily Weather History Graph

Search for Another Location

Airport:

Trip Planner

Search our weather history database for the weather conditions in past years. The results will help you decide how hot, cold, wet, or windy it might be!

Date:

Astronomy

Nov. 03, 2012 Rise Set
Actual Time 7:50 AM EDT 6:15 PM EDT
Civil Twilight 7:22 AM EDT 6:43 PM EDT
Nautical Twilight 6:50 AM EDT 7:15 PM EDT
Astronomical Twilight 6:19 AM EDT 7:46 PM EDT
Moon 9:54 PM EDT (11/3) 11:53 AM EDT (11/3)
Length of Visible Light 11h 20m
Length of Day
10h 24m
Waning Gibbous, 80% of the Moon is Illuminated
Nov 3
Waning Gibbous
Nov 6
Last Quarter
Nov 13
New
Nov 20
First Quarter
Nov 28
Full

Hourly Weather History & Observations

Time (EDT) Temp. Windchill Dew Point Humidity Pressure Visibility Wind Dir Wind Speed Gust Speed Precip Events Conditions
12:53 AM 39.0 °F 35.7 °F 28.0 °F 65% 30.05 in 10.0 mi WNW 4.6 mph - N/A   Overcast
1:21 AM 37.4 °F 32.8 °F 28.4 °F 70% 30.02 in 10.0 mi West 5.8 mph - N/A   Overcast
1:53 AM 37.9 °F - 28.0 °F 68% 30.05 in 10.0 mi Calm Calm - N/A   Overcast
2:53 AM 37.9 °F - 28.0 °F 68% 30.05 in 10.0 mi Calm Calm - N/A   Overcast
3:53 AM 37.9 °F 34.4 °F 28.0 °F 68% 30.05 in 10.0 mi WNW 4.6 mph - N/A   Overcast
4:53 AM 37.9 °F 35.5 °F 28.9 °F 70% 30.06 in 10.0 mi WNW 3.5 mph - N/A   Overcast
5:53 AM 37.9 °F 34.4 °F 30.0 °F 73% 30.08 in 10.0 mi Variable 4.6 mph - N/A   Overcast
6:53 AM 37.9 °F 33.5 °F 30.0 °F 73% 30.10 in 10.0 mi West 5.8 mph - N/A   Overcast
7:53 AM 37.9 °F 34.4 °F 30.0 °F 73% 30.12 in 10.0 mi West 4.6 mph - N/A   Overcast
8:53 AM 37.9 °F 34.4 °F 30.0 °F 73% 30.14 in 10.0 mi Variable 4.6 mph - N/A   Overcast
9:53 AM 39.0 °F 36.8 °F 30.0 °F 70% 30.14 in 10.0 mi West 3.5 mph - N/A   Overcast
10:53 AM 39.9 °F 35.1 °F 30.0 °F 68% 30.14 in 10.0 mi WNW 6.9 mph - N/A   Overcast
11:53 AM 42.1 °F 37.1 °F 28.9 °F 60% 30.14 in 10.0 mi West 8.1 mph - N/A   Overcast
12:53 PM 43.0 °F 39.5 °F 28.9 °F 58% 30.14 in 10.0 mi Variable 5.8 mph - N/A   Overcast
1:53 PM 43.0 °F 39.5 °F 28.0 °F 56% 30.12 in 10.0 mi West 5.8 mph - N/A   Overcast
2:53 PM 43.0 °F 40.3 °F 28.9 °F 58% 30.12 in 10.0 mi NW 4.6 mph - N/A   Overcast
3:53 PM 43.0 °F 37.7 °F 28.9 °F 58% 30.12 in 10.0 mi West 9.2 mph - N/A   Overcast
4:53 PM 43.0 °F 38.8 °F 28.9 °F 58% 30.12 in 10.0 mi WNW 6.9 mph - N/A   Overcast
5:53 PM 43.0 °F - 30.0 °F 60% 30.11 in 10.0 mi Calm Calm - N/A   Overcast
6:53 PM 42.1 °F - 30.0 °F 62% 30.12 in 10.0 mi Calm Calm - N/A   Overcast
7:53 PM 42.1 °F 39.2 °F 30.0 °F 62% 30.13 in 10.0 mi WSW 4.6 mph - N/A   Overcast
8:53 PM 41.0 °F - 30.0 °F 65% 30.13 in 10.0 mi Calm Calm - N/A   Overcast
9:53 PM 41.0 °F - 30.0 °F 65% 30.13 in 10.0 mi Calm Calm - N/A   Overcast
10:53 PM 41.0 °F - 30.0 °F 65% 30.13 in 10.0 mi Calm Calm - N/A   Overcast
11:53 PM 41.0 °F 39.0 °F 30.9 °F 67% 30.12 in 10.0 mi NNW 3.5 mph - N/A   Overcast